Regional Weather Roundup
Issued by NWS Little Rock, AR

Home | Current Version | Previous Version | Text Only | Print | Product List | Glossary Off
Versions: 1 2 3 4 5 6 7 8 9 10 11 12 13 14 15 16 17 18 19 20 21 22 23 24 25 26 27 28 29 30 31 32 33 34 35 36 37 38 39 40 41 42 43 44 45 46 47 48 49 50

000
ASUS44 KLZK 230105
RWRLZK

WEATHER ROUNDUP FOR ARKANSAS
NATIONAL WEATHER SERVICE LITTLE ROCK AR
800 PM CDT SUN APR 22 2018

NOTE: "FAIR" INDICATES FEW OR NO CLOUDS BELOW 12,000 FEET WITH NO
SIGNIFICANT WEATHER AND/OR OBSTRUCTIONS TO VISIBILITY.

ARZ001-003-010-029-230200-
NORTHWEST ARKANSAS

CITY           SKY/WX    TMP DP  RH WIND       PRES   REMARKS
FAYETTEVILLE   CLOUDY    52  51  97 CALM      29.95R
FORT SMITH     CLOUDY    54  52  93 W7        29.96R
HARRISON       CLOUDY    53  53 100 NW3       29.92S
BENTONVILLE    CLOUDY    55  52  89 NE6       29.97R
ROGERS         CLOUDY    54  52  93 N5        29.95S
SILOAM SPGS    CLOUDY    53  52  96 NW7       29.96R
HIGHFILL       CLOUDY    54  54 100 N7        29.95R
SPRINGDALE     CLOUDY    52  52 100 NW6       29.96R FOG
$$

ARZ004-005-016-230200-
NORTH CENTRAL ARKANSAS

CITY           SKY/WX    TMP DP  RH WIND       PRES   REMARKS
BATESVILLE     CLOUDY    55  53  93 VRB3      29.89S
FLIPPIN        CLOUDY    56  52  86 N7        29.92R
MTN HOME       CLOUDY    54  53  97 N3        29.90R
$$

ARZ040-041-230200-
WEST CENTRAL ARKANSAS

CITY           SKY/WX    TMP DP  RH WIND       PRES   REMARKS
MENA           CLOUDY    54  54 100 W7        29.96S
MOUNT IDA      CLOUDY    54  50  86 VRB3      29.92R
$$

ARZ009-017-025-026-028-230200-
NORTHEAST ARKANSAS

CITY           SKY/WX    TMP DP  RH WIND       PRES   REMARKS
CORNING        CLOUDY    61  61 100 E14       29.88R
JONESBORO      RAIN      59  59 100 W3        29.87R FOG
NEWPORT        CLOUDY    57  54  89 NW8       29.89R
WALNUT RIDGE   CLOUDY    58  56  93 NW5       29.88R
BLYTHEVILLE    MOCLDY    60  57  89 E14       29.87R
$$

ARZ022-023-033-042-044-230200-
CENTRAL ARKANSAS

CITY           SKY/WX    TMP DP  RH WIND       PRES   REMARKS
LITTLE ROCK    CLOUDY    58  53  84 NW13      29.90R
N LITTLE ROCK    N/A     55  52  91 NW7       29.87R
JACKSONVILLE   CLOUDY    58  54  86 W8G17     29.89R
CONWAY         CLOUDY    55  54  94 W9        29.90S
SEARCY         MOCLDY    59  58  96 N6        29.89R
HOT SPRINGS    CLOUDY    55  51  86 NW7       29.93R
RUSSELLVILLE   CLOUDY    54  52  93 W7        29.92S
CLINTON        MOCLDY    59  54  82 NW3       29.89S
$$

ARZ036-230200-
EAST ARKANSAS

CITY           SKY/WX    TMP DP  RH WIND       PRES   REMARKS
WEST MEMPHIS   HVY RAIN  61  61 100 N8        29.83R FOG
$$

ARZ050-053-066-070-073-230200-
SOUTHWEST ARKANSAS

CITY           SKY/WX    TMP DP  RH WIND       PRES   REMARKS
ARKADELPHIA    CLOUDY    57  51  80 NW7G17    29.94R
CAMDEN         CLOUDY    59  48  67 W6        29.92R
TEXARKANA      MOCLDY    55  49  80 NW12      29.97R
EL DORADO      CLOUDY    57  50  77 W9        29.94R
DE QUEEN       CLOUDY    55  50  83 NW7       29.96R
$$

ARZ056-057-069-230200-
SOUTHEAST ARKANSAS

CITY           SKY/WX    TMP DP  RH WIND       PRES   REMARKS
PINE BLUFF     CLOUDY    62  54  74 W14       29.88R
STUTTGART      LGT RAIN  62  59  90 NW9       29.88R
MONTICELLO     FAIR      61  53  75 W9G23     29.88R

$$





USA.gov is the U.S. government's official web portal to all federal, state and local government web resources and services.